Content
SEND FEEDBACK

Daily
Averages
Monthly
Summary
Grenada

SAINT GEORGE'S, GRENADA


Home > Caribbean > Grenada
Elevation: 23 feet     Latitude: 12 01N     Longitude: 061 48W

WEATHER
 
SELECT A DAY
Number of Records: 153,875;   Date Range: 6/30/96 - 8/31/14
 
SHARE

PRINT THIS DATA

[ ← Previous Day ]
WEATHER ALMANAC - MARCH 23, 2013
[ Next Day → ]
[ °C ]   °F
Weather ElementAverageHighLow
Temperature82.5 °F86 °F (9:00 am)80 °F (2:00 am)
Dewpoint74.8 °F75.2 °F (1:00 am)73.4 °F (11:00 am)
Humidity76.5 %84 % (1:00 am)65 % (2:00 pm)
Barometer29.95 in30.01 in (9:00 am)29.89 in (4:00 pm)
Wind Speed16.1 mph23 mph (11:00 am)
Weather ElementAverage
Visibility7.4 mi
Wind DirectionESE (110 °)

Weather ElementTotal
Precipitation---
Cooling Degree Days18 (Base 65)
Growing Degree Days33 (Base 50)
Averaged from 30 records on March 23, 2013
WEATHER CONDITIONS BREAKOUT
WIND DIRECTION BREAKOUT
WEATHER BY HOUR - MARCH 23, 2013
[ °C ]   °F
Local TimeTemperatureDewpointHumidityBarometerVisibilityWind DirectionWind SpeedGust SpeedPrecipitationEventsConditions
1:00 AM80.6 °F75.2 °F84 %29.95 in6.2 miESE (110°)17.3 mphPartly Cloudy
2:00 AM80.0 °F75.0 °F81 %29.94 in11.0 miEast (100°)15.0 mphWidespread Dust
2:00 AM80.6 °F75.2 °F84 %29.92 in6.2 miEast (100°)15.0 mphScattered Clouds
3:00 AM80.6 °F75.2 °F84 %29.92 in6.2 miEast (100°)17.3 mphScattered Clouds
4:00 AM80.6 °F75.2 °F84 %29.92 in6.2 miESE (110°)11.5 mphScattered Clouds
5:00 AM80.0 °F75.0 °F82 %29.94 in11.0 miESE (110°)18.4 mphWidespread Dust
5:00 AM80.6 °F75.2 °F84 %29.92 in6.2 miESE (110°)18.4 mphScattered Clouds
6:00 AM80.6 °F75.2 °F84 %29.95 in6.2 miESE (110°)17.3 mphScattered Clouds
7:00 AM80.6 °F75.2 °F84 %29.95 in6.2 miESE (110°)17.3 mphMostly Cloudy
8:00 AM83.0 °F75.0 °F70 %29.99 in9.0 miESE (110°)18.4 mphWidespread Dust
8:00 AM82.4 °F75.2 °F79 %29.98 in6.2 miESE (110°)18.4 mphMostly Cloudy
9:00 AM86.0 °F75.2 °F70 %30.01 in6.2 miESE (110°)19.6 mphMostly Cloudy
10:00 AM84.2 °F75.2 °F74 %30.01 in6.2 miESE (120°)20.7 mphMostly Cloudy
11:00 AM86.0 °F73.4 °F66 %30.01 in6.2 miSE (130°)23.0 mphMostly Cloudy
12:00 PM86.0 °F75.2 °F70 %29.98 in6.2 miESE (120°)21.9 mphMostly Cloudy
1:00 PM86.0 °F75.2 °F70 %29.95 in6.2 miSE (130°)20.7 mphMostly Cloudy
2:00 PM85.0 °F75.0 °F65 %29.94 in11.0 miESE (120°)19.6 mphWidespread Dust
2:00 PM86.0 °F75.2 °F70 %29.98 in6.2 miESE (120°)19.6 mphScattered Clouds
3:00 PM86.0 °F75.2 °F70 %29.92 in6.2 miSE (130°)20.7 mphScattered Clouds
4:00 PM86.0 °F75.2 °F70 %29.89 in6.2 miESE (120°)18.4 mphScattered Clouds
5:00 PM84.0 °F74.0 °F65 %29.91 in12.0 miESE (110°)12.7 mphWidespread Dust
5:00 PM84.2 °F73.4 °F70 %29.89 in6.2 miESE (110°)12.7 mphScattered Clouds
6:00 PM82.4 °F75.2 °F79 %29.89 in6.2 miESE (120°)16.1 mphScattered Clouds
7:00 PM80.6 °F75.2 °F84 %29.92 in6.2 miESE (110°)11.5 mphScattered Clouds
8:00 PM81.0 °F74.0 °F75 %29.94 in12.0 miEast (100°)12.7 mphWidespread Dust
8:00 PM80.6 °F75.2 °F84 %29.92 in6.2 miEast (100°)12.7 mphScattered Clouds
9:00 PM80.6 °F73.4 °F79 %29.95 in6.2 miEast (80°)11.5 mphScattered Clouds
10:00 PM80.6 °F73.4 °F79 %29.95 in6.2 miESE (110°)9.2 mphScattered Clouds
11:00 PM80.0 °F74.0 °F77 %29.98 in12.0 miEast (90°)8.1 mphWidespread Dust
11:00 PM80.6 °F73.4 °F79 %29.98 in6.2 miEast (90°)8.1 mphMostly Cloudy
Hourly data recorded from TGPY, located miles away from Saint George's, Grenada







STORIES FROM OUR PARTNERS